Skip Page Navigation
NASA JPL Caltech
NASA Logo - Jet Propulsion Laboratory + View the NASA Portal
+ Center for Near-Earth Object Studies
JPL Home Earth Solar System Stars & Galaxies Technology
JPL Solar System Dynamics
BODIES ORBITS EPHEMERIDES TOOLS PHYSICAL DATA DISCOVERY FAQ SITE MAP
JPL Small-Body Database Browser
Search: [ help ]  
(2012 EM8)
Classification: Amor [NEO]          SPK-ID: 3601300
Ephemeris | Orbit Diagram | Orbital Elements | Mission Design | Physical Parameters | Close-Approach Data ]

[ hide orbit diagram ]

For accurate long-term ephemerides, please instead use our Horizons system.This orbit viewer was implemented using two-body methods, and hence should not be used for determining accurate long-term trajectories (over several years or decades) or planetary encounter circumstances.


[ revert to old Java-based viewer ]

Orbital Elements at Epoch 2459000.5 (2020-May-31.0) TDB
Reference: JPL 25 (heliocentric ecliptic J2000)
 Element Value Uncertainty (1-sigma)   Units 
e .2443189860441876 1.531e-08  
a 1.371286805984507 1.2915e-09 au
q 1.036255403970599 2.0193e-08 au
i 3.90834845833731 2.5156e-06 deg
node 183.22844526 1.595e-05 deg
peri 16.02620769316525 1.9425e-05 deg
M 30.44156673762581 7.9176e-06 deg
tp 2458950.903004013093
(2020-Apr-11.40300401)
1.2886e-05 TDB
period 586.5308677827567
1.61
8.2861e-07
2.269e-09
d
yr
n .6137784382276352 8.6711e-10 deg/d
Q 1.706318207998414 1.607e-09 au
  Orbit Determination Parameters
   # obs. used (total)      126  
   data-arc span      2998 days (8.21 yr)  
   first obs. used      2012-03-14  
   last obs. used      2020-05-29  
   planetary ephem.      DE431  
   SB-pert. ephem.      SB431-N16  
   condition code      0  
   norm. resid. RMS      .50128  
   source      ORB  
   producer      Otto Matic  
   solution date      2020-May-30 06:43:51  

Additional Information
 Earth MOID = .0388951 au 
 Jupiter MOID = 3.2494 au 
 T_jup = 4.788 
[ show covariance matrix ]

Ephemeris | Orbit Diagram | Orbital Elements | Mission Design | Physical Parameters | Close-Approach Data ]

Physical Parameter Table
Parameter Symbol Value Units Sigma Reference Notes
absolute magnitude H 24.7   n/a MPO232615  

[ show close-approach data ]
Ephemeris | Orbit Diagram | Orbital Elements | Mission Design | Physical Parameters | Close-Approach Data ]
ABOUT SSD CREDITS/AWARDS PRIVACY/COPYRIGHT GLOSSARY LINKS
FirstGov 2020-Sep-22 08:50 UT
(server date/time)  
NASA Home Page
Site Manager:   Ryan S. Park
Webmaster  Alan B. Chamberlin